GW0884 Weather Reports


time (UTC)temp
C
wind
direction
speed
KPH
gust
KPH
rain 1hr
cm
rain 24hr
cm
rain mn
cm
humidity
%
barometer
mb
20260504050346 10 259 0.0 0.0 0.00 0.00 0.00 67 1015.9
20260504045843 10 259 0.0 0.0 0.00 0.00 0.00 65 1016.0
20260504045338 10 260 0.0 0.0 0.00 0.00 0.00 68 1016.1
20260504044835 10 259 0.0 0.0 0.00 0.00 0.00 66 1016.2
20260504044332 10 259 0.0 0.0 0.00 0.00 0.00 69 1016.0
20260504043830 10 259 0.0 0.0 0.00 0.00 0.00 64 1016.1
20260504043326 10 259 0.0 0.0 0.00 0.00 0.00 64 1016.1
20260504042824 10 259 0.0 0.0 0.00 0.00 0.00 64 1016.0
20260504042320 10 260 0.0 0.0 0.00 0.00 0.00 67 1016.0
20260504041816 10 260 0.0 1.6 0.00 0.00 0.00 71 1015.9
20260504041313 10 263 1.6 1.6 0.00 0.00 0.00 72 1016.0
20260504040809 10 276 1.6 3.2 0.00 0.00 0.00 71 1015.8
20260504040307 10 272 1.6 1.6 0.00 0.00 0.00 72 1015.9
20260504035802 10 260 0.0 0.0 0.00 0.00 0.00 71 1015.7
20260504035300 10 260 0.0 0.0 0.00 0.00 0.00 70 1015.6
20260504034757 10 260 0.0 0.0 0.00 0.00 0.00 70 1015.6
20260504034254 10 259 0.0 0.0 0.00 0.00 0.00 68 1015.5
20260504033752 10 260 0.0 0.0 0.00 0.00 0.00 65 1015.4
20260504033249 10 260 0.0 0.0 0.00 0.00 0.00 66 1015.7
20260504032746 10 266 0.0 0.0 0.00 0.00 0.00 72 1015.6
20260504032243 10 252 0.0 0.0 0.00 0.00 0.00 72 1015.5
20260504031739 10 252 0.0 0.0 0.00 0.00 0.00 72 1015.5
20260504031237 10 252 0.0 0.0 0.00 0.00 0.00 67 1015.5
20260504030732 10 264 0.0 0.0 0.00 0.00 0.00 69 1015.5
20260504030230 10 267 1.6 1.6 0.00 0.00 0.00 69 1015.4
20260504025726 10 266 0.0 0.0 0.00 0.00 0.00 73 1015.4
20260504025223 10 266 0.0 0.0 0.00 0.00 0.00 72 1015.4
20260504024720 10 266 0.0 0.0 0.00 0.00 0.00 72 1015.5
20260504024217 10 266 0.0 0.0 0.00 0.00 0.00 71 1015.5
20260504023714 10 260 0.0 0.0 0.00 0.00 0.00 69 1015.5
20260504023209 10 257 0.0 0.0 0.00 0.00 0.00 69 1015.4
20260504022706 10 257 0.0 0.0 0.00 0.00 0.00 70 1015.4
20260504022202 10 257 0.0 0.0 0.00 0.00 0.00 68 1015.4
20260504021700 10 257 0.0 0.0 0.00 0.00 0.00 67 1015.3
20260504021156 10 258 0.0 0.0 0.00 0.00 0.00 69 1015.2
20260504020653 10 257 0.0 0.0 0.00 0.00 0.00 70 1015.3
20260504020149 10 257 0.0 0.0 0.00 0.00 0.00 69 1015.4
20260504015646 10 262 0.0 1.6 0.00 0.00 0.00 70 1015.3
20260504015143 10 254 0.0 0.0 0.00 0.00 0.00 69 1015.3
20260504014638 10 253 0.0 0.0 0.00 0.00 0.00 68 1015.3
20260504014136 10 253 0.0 0.0 0.00 0.00 0.00 66 1015.4
20260504013633 10 253 0.0 0.0 0.00 0.00 0.00 66 1015.3
20260504013130 10 252 0.0 0.0 0.00 0.00 0.00 63 1015.2
20260504012627 10 252 0.0 0.0 0.00 0.00 0.00 62 1015.3
20260504012125 10 252 0.0 0.0 0.00 0.00 0.00 62 1015.2
20260504011622 11 246 0.0 0.0 0.00 0.00 0.00 63 1015.1
20260504011118 11 247 0.0 0.0 0.00 0.00 0.00 62 1015.2
20260504010614 11 240 0.0 0.0 0.00 0.00 0.00 63 1015.2
20260504010110 11 240 0.0 0.0 0.00 0.00 0.00 60 1015.1
20260504005607 12 240 0.0 0.0 0.00 0.00 0.00 57 1014.9
20260504005104 12 240 0.0 0.0 0.00 0.00 0.00 57 1014.9
20260504004602 12 240 0.0 0.0 0.00 0.00 0.00 55 1014.8
20260504004059 12 240 0.0 0.0 0.00 0.00 0.00 55 1014.8
20260504003555 12 240 0.0 0.0 0.00 0.00 0.00 56 1014.9
20260504003052 13 239 0.0 0.0 0.00 0.00 0.00 54 1014.8
20260504002549 13 240 0.0 0.0 0.00 0.00 0.00 50 1014.7
20260504002046 13 240 0.0 0.0 0.00 0.00 0.00 41 1014.6
20260504001544 13 235 0.0 0.0 0.00 0.00 0.00 37 1014.5
20260504001040 14 248 0.0 0.0 0.00 0.00 0.00 36 1014.5
20260504000537 15 252 0.0 0.0 0.00 0.00 0.00 34 1014.5
20260504000035 15 264 0.0 0.0 0.00 0.00 0.00 34 1014.5
20260503235533 15 239 0.0 0.0 0.00 0.00 0.00 34 1014.5
20260503235029 15 223 3.2 3.2 0.00 0.00 0.00 33 1014.4
20260503234527 15 247 0.0 0.0 0.00 0.00 0.00 32 1014.3
20260503234025 15 269 0.0 0.0 0.00 0.00 0.00 32 1014.2
20260503233521 16 242 0.0 0.0 0.00 0.00 0.00 32 1014.2
20260503233017 16 294 3.2 3.2 0.00 0.00 0.00 30 1014.1
20260503232514 16 343 8.0 9.7 0.00 0.00 0.00 30 1014.1
20260503232012 16 244 3.2 3.2 0.00 0.00 0.00 29 1014.0
20260503231509 16 259 4.8 4.8 0.00 0.00 0.00 29 1014.2
20260503231006 16 278 1.6 3.2 0.00 0.00 0.00 29 1014.1
20260503230502 16 250 6.4 11.3 0.00 0.00 0.00 29 1014.1
20260503230000 16 282 6.4 12.9 0.00 0.00 0.00 29 1014.3
20260503225457 16 295 11.3 14.5 0.00 0.00 0.00 28 1014.3
20260503224952 16 277 8.0 9.7 0.00 0.00 0.00 28 1014.3
20260503224449 17 281 8.0 12.9 0.00 0.00 0.00 28 1014.3
20260503223947 17 249 4.8 4.8 0.00 0.00 0.00 28 1014.2
20260503223445 17 297 4.8 4.8 0.00 0.00 0.00 28 1014.2
20260503222940 17 298 4.8 8.0 0.00 0.00 0.00 27 1014.1
20260503222439 17 338 11.3 14.5 0.00 0.00 0.00 27 1014.2
20260503221937 17 260 0.0 0.0 0.00 0.00 0.00 29 1014.3
20260503221435 17 315 8.0 9.7 0.00 0.00 0.00 27 1014.3
20260503220931 17 329 8.0 9.7 0.00 0.00 0.00 28 1014.4
20260503220428 17 258 4.8 8.0 0.00 0.00 0.00 26 1014.2
20260503215925 16 301 12.9 17.7 0.00 0.00 0.00 27 1014.2
20260503215422 16 68 1.6 3.2 0.00 0.00 0.00 27 1014.3
20260503214919 16 283 1.6 3.2 0.00 0.00 0.00 29 1014.2
20260503214417 16 336 11.3 14.5 0.00 0.00 0.00 27 1014.3
20260503213914 16 293 4.8 4.8 0.00 0.00 0.00 28 1014.3
20260503213412 16 260 11.3 12.9 0.00 0.00 0.00 27 1014.1
20260503212908 17 212 4.8 8.0 0.00 0.00 0.00 28 1014.3
20260503212406 17 263 6.4 8.0 0.00 0.00 0.00 28 1014.3
20260503211903 16 282 1.6 3.2 0.00 0.00 0.00 27 1014.1
20260503211359 16 279 1.6 3.2 0.00 0.00 0.00 27 1014.2
20260503210855 16 244 4.8 8.0 0.00 0.00 0.00 28 1014.2
20260503210353 16 253 4.8 9.7 0.00 0.00 0.00 33 1014.2
20260503205847 16 268 3.2 3.2 0.00 0.00 0.00 33 1014.0
20260503205344 16 270 6.4 9.7 0.00 0.00 0.00 31 1014.3
20260503204840 16 297 6.4 9.7 0.00 0.00 0.00 29 1014.3
20260503204338 16 343 8.0 11.3 0.00 0.00 0.00 29 1014.4
20260503203835 16 265 6.4 9.7 0.00 0.00 0.00 27 1014.5
20260503203332 16 225 6.4 11.3 0.00 0.00 0.00 28 1014.3
20260503202829 16 300 12.9 16.1 0.00 0.00 0.00 28 1014.3
20260503202327 16 295 11.3 16.1 0.00 0.00 0.00 29 1014.6
20260503201826 16 260 11.3 14.5 0.00 0.00 0.00 30 1014.6
20260503201322 16 247 9.7 12.9 0.00 0.00 0.00 32 1014.8
20260503200820 16 301 8.0 11.3 0.00 0.00 0.00 30 1014.8
20260503200315 16 275 8.0 12.9 0.00 0.00 0.00 30 1014.8
20260503195813 16 317 9.7 14.5 0.00 0.00 0.00 30 1014.9
20260503195309 16 280 14.5 17.7 0.00 0.00 0.00 29 1014.8
20260503194807 15 309 11.3 14.5 0.00 0.00 0.00 31 1015.1
20260503194302 16 303 8.0 11.3 0.00 0.00 0.00 31 1015.1
20260503193759 16 311 12.9 16.1 0.00 0.00 0.00 31 1015.1
20260503193255 15 313 3.2 4.8 0.00 0.00 0.00 32 1015.2
20260503192751 15 263 9.7 12.9 0.00 0.00 0.00 31 1015.2
20260503192246 15 242 12.9 16.1 0.00 0.00 0.00 31 1015.3
20260503191743 15 282 8.0 9.7 0.00 0.00 0.00 32 1015.5
20260503191240 15 282 6.4 9.7 0.00 0.00 0.00 31 1015.3
20260503190737 15 250 9.7 11.3 0.00 0.00 0.00 31 1015.6
20260503190234 15 1 6.4 8.0 0.00 0.00 0.00 33 1015.3
20260503185731 15 258 3.2 8.0 0.00 0.00 0.00 33 1015.3
20260503185226 15 275 8.0 9.7 0.00 0.00 0.00 32 1015.5
20260503184721 15 262 3.2 8.0 0.00 0.00 0.00 33 1015.7
20260503184218 14 288 8.0 11.3 0.00 0.00 0.00 31 1015.7
20260503183714 14 286 11.3 14.5 0.00 0.00 0.00 33 1015.9
20260503183211 14 295 6.4 9.7 0.00 0.00 0.00 32 1015.8
20260503182709 13 343 3.2 4.8 0.00 0.00 0.00 32 1015.7
20260503182208 13 282 3.2 4.8 0.00 0.00 0.00 33 1015.9
20260503181704 14 233 6.4 9.7 0.00 0.00 0.00 32 1016.0
20260503181201 14 282 11.3 17.7 0.00 0.00 0.00 31 1016.0
20260503180657 14 357 8.0 11.3 0.00 0.00 0.00 32 1015.9
20260503180156 13 253 1.6 3.2 0.00 0.00 0.00 33 1015.9
20260503175652 13 287 9.7 12.9 0.00 0.00 0.00 33 1015.9
20260503175150 13 287 9.7 12.9 0.00 0.00 0.00 33 1015.9
20260503174646 14 280 4.8 8.0 0.00 0.00 0.00 32 1016.2
20260503174143 14 312 14.5 17.7 0.00 0.00 0.00 32 1016.1
20260503173638 13 221 9.7 12.9 0.00 0.00 0.00 33 1016.2
20260503173135 13 333 11.3 14.5 0.00 0.00 0.00 34 1016.2
20260503172632 13 313 4.8 4.8 0.00 0.00 0.00 32 1016.2
20260503172130 13 253 6.4 9.7 0.00 0.00 0.00 33 1016.3
20260503171626 13 241 1.6 3.2 0.00 0.00 0.00 32 1016.2
20260503171123 13 342 11.3 12.9 0.00 0.00 0.00 32 1016.2
20260503150726 11 324 4.8 4.8 0.00 0.00 0.00 40 1017.2
20260503150222 10 294 8.0 9.7 0.00 0.00 0.00 38 1017.2
20260503090229 6 274 6.4 9.7 0.00 0.00 0.00 63 1014.3